Location: Celina Elementary School
(33.3262°N, 96.7767°W)
Time: 09:15:00
(UTC+00:00)

CZ-2C R/B - Pass Details

Date: 26 November 2021
Orbit: 784 x 870 km, 98.2° (Epoch: 19 January)

Event Time Altitude Azimuth Distance (km) Brightness Sun altitude
Rises 23:36:43 0° 27° (NNE) 3,306 5.3 -4.0°
Reaches altitude 10° 23:39:28 10° 41° (NE) 2,362 4.5 -4.5°
Maximum altitude 23:43:43 25° 96° (E) 1,538 3.6 -5.3°
Drops below altitude 10° 23:47:55 10° 151° (SSE) 2,333 4.9 -6.2°
Sets 23:50:35 0° 164° (SSE) 3,257 5.8 -6.7°
